Weather History for Olympia, WA

Change the Weather History Date:

Sunday, June 8, 2014

  Actual Average Record
Temperature  
Mean Temperature 63 °F 58 °F  
Max Temperature 76 °F 69 °F 94 °F (1948)
Min Temperature 49 °F 47 °F 34 °F (1960)
Degree Days  
Heating Degree Days 2 7  
Month to date heating degree days 46 61  
Since 1 June heating degree days 46 61  
Since 1 July heating degree days 5136 5257  
Cooling Degree Days 0 0  
Month to date cooling degree days 0 0  
Year to date cooling degree days 1 3  
Since 1 June cooling degree days 0 0  
Growing Degree Days 14 (Base 50)    
Moisture  
Dew Point 52 °F    
Average Humidity 77    
Maximum Humidity 100    
Minimum Humidity 53    
Precipitation  
Precipitation 0.00 in 0.07 in 1.16 in (1981)
Month to date precipitation 0.00 0.57  
Year to date precipitation 29.81 24.84  
Sea Level Pressure  
Sea Level Pressure 30.18 in    
Wind  
Wind Speed 3 mph (SSW)    
Max Wind Speed 12 mph    
Max Gust Speed 16 mph    
Visibility 9 miles    
Events      
T = Trace of Precipitation, MM = Missing Value Source: NWS Daily Summary

Daily Weather History Graph

Daily Weather History Graph

Search for Another Location

Airport:

Trip Planner

Search our weather history database for the weather conditions in past years. The results will help you decide how hot, cold, wet, or windy it might be!

Date:

Astronomy

Jun. 08, 2014 Rise Set
Actual Time 5:17 AM PDT 9:04 PM PDT
Civil Twilight 4:38 AM PDT 9:43 PM PDT
Nautical Twilight 3:44 AM PDT 10:37 PM PDT
Astronomical Twilight 2:28 AM PDT 11:54 PM PDT
Moon 4:12 PM PDT (6/8) 2:31 AM PDT (6/8)
Length of Visible Light 17h 05m
Length of Day
15h 47m
Waxing Gibbous, 78% of the Moon is Illuminated
Jun 8
Waxing Gibbous
Jun 12
Full
Jun 19
Last Quarter
Jun 27
New
Jul 5
First Quarter

Hourly Weather History & Observations

Time (PDT) Temp. Dew Point Humidity Pressure Visibility Wind Dir Wind Speed Gust Speed Precip Events Conditions
12:54 AM 52.0 °F 50.0 °F 93% 30.20 in 10.0 mi Calm Calm - N/A   Clear
1:54 AM 50.0 °F 48.9 °F 96% 30.21 in 6.0 mi Calm Calm - N/A   Clear
2:32 AM 51.1 °F 48.9 °F 92% 30.20 in 8.0 mi Calm Calm - N/A   Scattered Clouds
2:54 AM 50.0 °F 48.9 °F 96% 30.21 in 8.0 mi Calm Calm - N/A   Mostly Cloudy
3:03 AM 50.0 °F 48.9 °F 96% 30.21 in 1.8 mi Calm Calm - N/A   Mostly Cloudy
3:13 AM 51.1 °F 50.0 °F 96% 30.21 in 4.0 mi Calm Calm - N/A   Overcast
3:54 AM 52.0 °F 51.1 °F 97% 30.22 in 8.0 mi Calm Calm - N/A   Overcast
4:54 AM 53.1 °F 51.1 °F 93% 30.22 in 10.0 mi SSW 3.5 mph - N/A   Overcast
5:54 AM 53.1 °F 51.1 °F 93% 30.23 in 5.0 mi South 4.6 mph - N/A   Overcast
6:54 AM 54.0 °F 52.0 °F 93% 30.23 in 5.0 mi South 4.6 mph - N/A   Overcast
7:54 AM 54.0 °F 51.1 °F 90% 30.23 in 8.0 mi South 3.5 mph - N/A   Overcast
8:54 AM 54.0 °F 51.1 °F 90% 30.24 in 10.0 mi North - - N/A   Overcast
9:54 AM 55.9 °F 52.0 °F 87% 30.24 in 10.0 mi SW 4.6 mph - N/A   Overcast
10:54 AM 57.9 °F 52.0 °F 81% 30.23 in 10.0 mi Calm Calm - N/A   Overcast
11:54 AM 60.1 °F 52.0 °F 75% 30.22 in 10.0 mi Calm Calm - N/A   Overcast
12:26 PM 61.0 °F 53.1 °F 75% 30.21 in 10.0 mi SSE 3.5 mph - N/A   Overcast
12:54 PM 64.0 °F 53.1 °F 67% 30.21 in 10.0 mi Calm Calm - N/A   Mostly Cloudy
1:20 PM 66.0 °F 54.0 °F 65% 30.20 in 10.0 mi Calm Calm - N/A   Mostly Cloudy
1:54 PM 68.0 °F 54.0 °F 61% 30.19 in 10.0 mi Calm Calm - N/A   Scattered Clouds
2:54 PM 71.1 °F 55.0 °F 57% 30.17 in 10.0 mi Variable 4.6 mph - N/A   Scattered Clouds
3:54 PM 73.0 °F 55.0 °F 53% 30.15 in 10.0 mi Calm Calm - N/A   Partly Cloudy
4:54 PM 73.0 °F 55.9 °F 55% 30.12 in 10.0 mi Calm Calm - N/A   Clear
4:56 PM 73.9 °F 55.9 °F 53% 30.12 in 10.0 mi Calm Calm - N/A   Scattered Clouds
5:54 PM 73.0 °F 55.0 °F 53% 30.11 in 10.0 mi Calm Calm - N/A   Overcast
6:54 PM 72.0 °F 53.1 °F 51% 30.10 in 10.0 mi SW 9.2 mph - N/A   Partly Cloudy
7:54 PM 66.9 °F 50.0 °F 54% 30.10 in 10.0 mi SW 9.2 mph - N/A   Clear
8:54 PM 63.0 °F 50.0 °F 63% 30.10 in 10.0 mi SW 6.9 mph - N/A   Clear
9:54 PM 57.9 °F 51.1 °F 78% 30.11 in 10.0 mi SSW 8.1 mph - N/A   Clear
10:54 PM 55.9 °F 51.1 °F 84% 30.11 in 10.0 mi South 9.2 mph - N/A   Partly Cloudy
11:54 PM 55.0 °F 51.1 °F 86% 30.12 in 10.0 mi South 5.8 mph - N/A   Scattered Clouds